Погода в Горячинске

Погода в Горячинске : погода сейчас, прогноз погоды и архив. Всё, что Вы хотите узнать о погоде в Горячинске!

Поиск расширенной информации на нашем сайте:

Другие новости

Новости СМИ2

Главная страница сайта

Новости сайта

03.07.2017

Напоминаем, что на нашем специализированном сайте Метеоцентр.Азия вы можете получить высокодетализированные автоматические прогнозы погоды по пунктам России, СНГ и мира в авиационном формате (включающие направление и скорость ветра, видимость, явления погоды, количество и форму облачности, нижнюю и верхнюю границу облачности).

Рекомендуем: Два месяца назад я сделала инъекции ботакса www.entelia74.ru.

Погода в Горячинске - сегодня

Время (UTC), дата Ветер
(°,м/с) 
Видим.   Явления Облачность Т
(°С)
Тd
(°С)
f(%) Тe
(°С)
Pmin
(гПа)
dP
(гПа)
Po
(мм)
O2
(г/м3)
Тmin Tmax R s Состояние
почвы
00 18.08.17 250 (З) 5-10{13}  20000 м    10/8 600 м кучево-дожд., средняя 
[Cb cap|Ac und]
+15.8 +11.4 75 +20  1014.7  2.4  719  272  +15.5        сухая 
03 18.08.17 230 (ЮЗ) 5{10}  н/о    н/о 
+16.9 +11.3 70 +21  1014.5  719  271  +15.4         
06 18.08.17 270 (З) 20000 м  {ливн. осадки}  4/3 1000 м средняя 
[Sc|Ac cast]
+19 +10.1 56 +21  1014.2  -0.1  719  269           
09 18.08.17 280 (З) н/о    н/о 
+18.4 +11.1 62 +23  1013.6  -0.7  718  269           
12 18.08.17 210 (ЮЗ) 20000 м    10/3 1000 м верхняя 
[Sc diur, vesp|Cc]
+15.4 +10.9 75 +20  1014.3  0.1  718  272    +19.3  0.3     
15 18.08.17 110 (В) н/о    н/о 
+11.5 +9.8 89 +15  1015.3  0.2  719  276           
18 18.08.17 110 (В) н/о    ясно 
+12.2 +10.4 89 +16  1014.1  -1  718  275           
21 18.08.17 160 (Ю) н/о    н/о 
+12.2 +10.5 89 +16  1013.5  -0.6  717  275           
00 19.08.17 110 (В) 10 км  дым  10/0 средняя 
[Ac und]
+14.9 +10.7 76 +19  1012.8  0.1  717  272  +11.4        сухая 
03 19.08.17 330 (СЗ) н/о    н/о 
+18.3 +11.9 66 +25  1011.4  -0.7  717  268           
06 19.08.17 320 (СЗ) 10 км  дым  10/3 1000 м средняя, верхняя 
[Cu Sc|Ac trans|Ci sp]
+20.3 +12.7 62 +26  1009.2  -1.6  716  266           
09 19.08.17 340 (С) н/о    н/о 
+20.7 +10.1 51 +23  1007.8  -1.3  715  266           
12 19.08.17 200 (Ю) 20000 м    10/0 средняя, верхняя 
[Ac lent|Ci sp]
+16.7 +13.2 80 +25  1008  -0.5  714  268    +21.2       
15 19.08.17 100 (В) н/о    н/о 
+13.8 +9.7 76 +17  1007.9  -0.8  714  272           
18 19.08.17 100 (В) н/о    10/0 средняя 
[Ac und]
+14.2 +11.4 83 +19  1006.4  -1.3  713  271           
21 19.08.17 тихо ()   н/о    н/о 
+13.5 +11.7 89 +18  1004.6  -1.8  711  271           
00 20.08.17 130 (ЮВ) 10 км  туман на расстоянии  10/0 средняя 
[Ac und]
+16.3 +10.7 69 +21  1002.7  -1.3  710  268  +13.3        сухая 
03 20.08.17 070 (В) н/о    н/о 
+20.1 +6.7 42 +20  1000.4  -1.5  709  265           
06 20.08.17 350 (С) 4000 м  мгла  10/0 средняя 
[Ac und]
+19.9 +8.5 48 +21  998.9  -1.4  708  264           
09 20.08.17 100 (В) н/о    н/о 
+15.2 +11.3 78 +20  1000.6  -1.4  709  268           
12 20.08.17 160 (Ю) 20000 м  {дождь}  10/10 600 м 
[Ns]
+13.6 +11.2 85 +19  1000.3  -0.6  708  270    +20.5  0.5     
15 20.08.17 180 (Ю) н/о    н/о 
+14.1 +12.3 89 +21  999.5  -0.6  708  269           
18 20.08.17 200 (Ю) н/о  слаб. дождь  10/10 600 м 
[Ns]
+15 +10.5 74 +19  998.4  -0.9  707  268           
21 20.08.17 250 (З) н/о    н/о 
+16.3 +10.1 67 +19  998.4  0.3  707  267           
00 21.08.17 260 (З) 6-11{12}  4000 м  мгла{дождь}  10/10 1000 м 
[Sc]
+16.6 +9.7 64 +18  999.7  1.3  708  267  +13.5    0.6    влажная 
Время (UTC), дата Ветер
(°,м/с) 
Видим.   Явления Облачность Т
(°С)
Тd
(°С)
f(%) Тe
(°С)
Pmin
(гПа)
dP
(гПа)
Po
(мм)
O2
(г/м3)
Тmin Tmax R s Состояние
почвы

Для получения пояснительной информации подведите курсор к названию столбца.

ПОГОДА в Горячинске - архив

Всё, что Вы хотите узнать о погоде в Горячинске - удобно и подробно!

Выберите нужную дату (начиная с 1 января 2015* года) и нажмите кнопку "Найти".
Будут отображены архивные сводки погоды по пункту Горячинск, начиная с указанной даты.


Отображать данные в формате CSV (для использования в таблицах Excel)


Внимание! Наш архив погоды предназначен исключительно для личного некоммерческого использования в познавательных целях. Если Вам необходимы официальные справки о состоянии погоды (для производственных, юридических, коммерческих и т.п. целей), обращайтесь в органы Росгидромета.

*Примечание: данная дата относится к архиву по метеостанциям СССР (Россия, СНГ, Балтия).
Архив по метеостанциям Зарубежной Европы и Азии (кроме Китая) хранится 10 дней, по другим регионам земного шара (Китай, Африка, Америка, Австралия, Океания) - 1 день.

Горячинск - район местоположения метеостанции


Название, широта, долгота, высота метеостанции:
Горячинск 53°ш. 108.3°д. 487 м над ур. моря [Российская Федерация]

Дополнительная информация

В oтличие oт бoльшинства пoгoдных сайтoв мы публикуем пoдрoбную метеoинфoрмацию в детальнoм прoфессиoнальнoм фoрмате.

Характеристики температуры и влажнoсти вoздуха измеряются на высoте 2 м в тени вдали oт зданий и деревьев.
Скoрoсть ветра измеряется на высoте 10 м (на урoвне рoста челoвека скoрoсть ветра ниже в 1.5-2 раза). Если метеoстанция нахoдится в гoрoде или в лесу, тo скoрoсть ветра занижена на 2-4 м/с пo сравнению с oткрытым местoм. Скoрoсть ветра над акватoриями крупных рек и oзёр, а также на вершинах хoлмoв на 2-5 м/с выше, чем в oбычных услoвиях.
Атмoсфернoе давление в разных тoчках местнoсти мoжет значительнo oтличаться oт давления на метеoстанции, в зависимoсти oт услoвий рельефа (при пoдъёме на 10 м давление пoнижается примернo на 1 мм рт.ст.).